FENGYUN 1C DEB, 31825

Orbit data source: Space-Track

FENGYUN 1C DEB, 31825 is space debris in SSO originally from a launch on Mon, 10 May 1999 UTC launched from the Taiyaun Space Center, China (TSC). Fengyun 1C debris stems from the Chinese weather satellite Fengyun-1C, which was intentionally destroyed by a Chinese anti-satellite missile in 2007. This event dramatically increased the amount of space debris, with thousands of trackable fragments posing hazards to satellites and human spaceflight. The Fengyun 1C debris cloud has become a focal point in discussions about space sustainability and the need for international regulations to prevent the creation of new debris.

Loading next visibility...
Identifier
31825, 1999-025CHP
Orbit
SSO
Country
Flag of CNCN / PRC
Related business
Manufacturer
Unknown
Mission
Spacecraft
Bus & Motor
Unknown
Mass
Unknown
Launch date (UTC)
1999-05-10 (27 years ago)
Launch vehicle
Unknown
Launch site
Taiyaun Space Center, China (TSC)
Object type
Payload
Rocket body
Debris
Shape & HBR
Unknown shape, 0.1 m
Radar Cross Section
Small (<0.1 m²)

Expand to show TLE details & history
Last TLE update: 5 hours ago

TLE from 5 hours ago
0 FENGYUN 1C DEB
1 31825U 99025CHP 26255.19196480  .00000565  00000-0  24000-3 0  9997
2 31825  98.6011 253.0167 0163366 264.5566  93.6959 14.22291192995084
Epoch: 2026-09-12T04:36Z
TLE epoch observation values (Epoch: 2026-09-12T04:36:25.758Z)
Latitude
0.00006°
Longitude
-167.29513°
Altitude
830.025 km
Speed
7.433 km/s
True Right ascension
16h 52m 04s
True Declination
0° 00' 00"
Sunlit
Object was in daylight at epoch
Visualization orbit readout
Latitude
Unknown
Longitude
Unknown
Altitude
Unknown
Speed
Unknown
Apparent Right ascension
Unknown
Apparent Declination
Unknown
Sunlit
N/A
Visualization observer readout
Local Sidereal Time
01:32:24
Azimuth
Unknown
Elevation
Unknown
Doppler factor
Unknown
Orbital elements
Apogee altitude
932.271 km
Perigee altitude
697.256 km
Semi-major axis
7,192.901 km
Eccentricity
0.01634
Inclination
98.6011°
RAAN
253.0167°
Arg. of periapsis
264.5566°
True anomaly
95.56126°
Mean anomaly
93.6959°
Eccentric anomaly
94.62887°
Mean motion
3.55785 °/min
Orbital period
101.18 mins
BSTAR
0.00024
Loading maneuver chart data...
Computing Atmospheric mass density...

Documentation

Showing up to 5 results
|